Year,Month,Day,Hour,Minute,Value (Times are PST for temperature in C)
2010,05,14,00,00,8.60
2010,05,14,00,01,8.60
2010,05,14,00,02,8.60
2010,05,14,00,03,8.60
2010,05,14,00,04,8.60
2010,05,14,00,05,8.60
2010,05,14,00,06,8.60
2010,05,14,00,07,8.60
2010,05,14,00,08,8.50
2010,05,14,00,09,8.60
2010,05,14,00,10,8.50
2010,05,14,00,11,8.50
2010,05,14,00,12,8.50
2010,05,14,00,13,8.50
2010,05,14,00,14,8.40
2010,05,14,00,15,8.40
2010,05,14,00,16,8.40
2010,05,14,00,17,8.40
2010,05,14,00,18,8.40
2010,05,14,00,19,8.30
2010,05,14,00,20,8.30
2010,05,14,00,21,8.30
2010,05,14,00,22,8.30
2010,05,14,00,23,8.30
2010,05,14,00,24,8.30
2010,05,14,00,25,8.30
2010,05,14,00,26,8.40
2010,05,14,00,27,8.30
2010,05,14,00,28,8.30
2010,05,14,00,29,8.30
2010,05,14,00,30,8.30
2010,05,14,00,31,8.30
2010,05,14,00,32,8.30
2010,05,14,00,33,8.30
2010,05,14,00,34,8.30
2010,05,14,00,35,8.30
2010,05,14,00,36,8.30
2010,05,14,00,37,8.30
2010,05,14,00,38,8.30
2010,05,14,00,39,8.30
2010,05,14,00,40,8.30
2010,05,14,00,41,8.30
2010,05,14,00,42,8.30
2010,05,14,00,43,8.30
2010,05,14,00,44,8.30
2010,05,14,00,45,8.30
2010,05,14,00,46,8.40
2010,05,14,00,47,8.40
2010,05,14,00,48,8.50
2010,05,14,00,49,8.50
2010,05,14,00,50,8.60
2010,05,14,00,51,8.60
2010,05,14,00,52,8.70
2010,05,14,00,53,8.70
2010,05,14,00,54,8.80
2010,05,14,00,55,8.80
2010,05,14,00,56,8.80
2010,05,14,00,57,8.80
2010,05,14,00,58,8.80
2010,05,14,00,59,8.70
2010,05,14,01,00,8.80
2010,05,14,01,01,8.80
2010,05,14,01,02,8.80
2010,05,14,01,03,8.80
2010,05,14,01,04,8.80
2010,05,14,01,05,8.90
2010,05,14,01,06,8.90
2010,05,14,01,07,8.90
2010,05,14,01,08,8.90
2010,05,14,01,09,8.80
2010,05,14,01,10,8.80
2010,05,14,01,11,8.80
2010,05,14,01,12,8.80
2010,05,14,01,13,8.80
2010,05,14,01,14,8.80
2010,05,14,01,15,8.80
2010,05,14,01,16,8.80
2010,05,14,01,17,8.70
2010,05,14,01,18,8.70
2010,05,14,01,19,8.70
2010,05,14,01,20,8.80
2010,05,14,01,21,8.80
2010,05,14,01,22,8.90
2010,05,14,01,23,9.00
2010,05,14,01,24,9.10
2010,05,14,01,25,9.10
2010,05,14,01,26,9.20
2010,05,14,01,27,9.20
2010,05,14,01,28,9.20
2010,05,14,01,29,9.10
2010,05,14,01,30,9.00
2010,05,14,01,31,8.90
2010,05,14,01,32,8.80
2010,05,14,01,33,8.70
2010,05,14,01,34,8.60
2010,05,14,01,35,8.50
2010,05,14,01,36,8.40
2010,05,14,01,37,8.40
2010,05,14,01,38,8.40
2010,05,14,01,39,8.30
2010,05,14,01,40,8.20
2010,05,14,01,41,8.20
2010,05,14,01,42,8.10
2010,05,14,01,43,8.10
2010,05,14,01,44,8.00
2010,05,14,01,45,8.00
2010,05,14,01,46,7.90
2010,05,14,01,47,7.90
2010,05,14,01,48,7.90
2010,05,14,01,49,7.90
2010,05,14,01,50,7.90
2010,05,14,01,51,7.80
2010,05,14,01,52,7.80
2010,05,14,01,53,7.80
2010,05,14,01,54,7.80
2010,05,14,01,55,7.80
2010,05,14,01,56,7.80
2010,05,14,01,57,7.80
2010,05,14,01,58,7.70
2010,05,14,01,59,7.70
2010,05,14,02,00,7.70
2010,05,14,02,01,7.60
2010,05,14,02,02,7.60
2010,05,14,02,03,7.50
2010,05,14,02,04,7.50
2010,05,14,02,05,7.40
2010,05,14,02,06,7.40
2010,05,14,02,07,7.40
2010,05,14,02,08,7.50
2010,05,14,02,09,7.50
2010,05,14,02,10,7.50
2010,05,14,02,11,7.60
2010,05,14,02,12,7.70
2010,05,14,02,13,7.90
2010,05,14,02,14,8.00
2010,05,14,02,15,8.20
2010,05,14,02,16,8.30
2010,05,14,02,17,8.50
2010,05,14,02,18,8.60
2010,05,14,02,19,8.70
2010,05,14,02,20,8.80
2010,05,14,02,21,8.90
2010,05,14,02,22,9.10
2010,05,14,02,23,9.10
2010,05,14,02,24,9.20
2010,05,14,02,25,9.20
2010,05,14,02,26,9.20
2010,05,14,02,27,9.20
2010,05,14,02,28,9.20
2010,05,14,02,29,9.20
2010,05,14,02,30,9.20
2010,05,14,02,31,9.20
2010,05,14,02,32,9.20
2010,05,14,02,33,9.10
2010,05,14,02,34,9.10
2010,05,14,02,35,9.10
2010,05,14,02,36,9.00
2010,05,14,02,37,9.00
2010,05,14,02,38,9.00
2010,05,14,02,39,9.00
2010,05,14,02,40,9.00
2010,05,14,02,41,9.00
2010,05,14,02,42,8.90
2010,05,14,02,43,8.90
2010,05,14,02,44,8.90
2010,05,14,02,45,8.90
2010,05,14,02,46,8.90
2010,05,14,02,47,8.90
2010,05,14,02,48,8.90
2010,05,14,02,49,8.90
2010,05,14,02,50,9.00
2010,05,14,02,51,9.00
2010,05,14,02,52,9.10
2010,05,14,02,53,9.10
2010,05,14,02,54,9.10
2010,05,14,02,55,9.10
2010,05,14,02,56,9.00
2010,05,14,02,57,9.00
2010,05,14,02,58,9.00
2010,05,14,02,59,9.00
2010,05,14,03,00,8.90
2010,05,14,03,01,8.90
2010,05,14,03,02,8.90
2010,05,14,03,03,8.80
2010,05,14,03,04,8.80
2010,05,14,03,05,8.80
2010,05,14,03,06,8.80
2010,05,14,03,07,8.70
2010,05,14,03,08,8.70
2010,05,14,03,09,8.70
2010,05,14,03,10,8.70
2010,05,14,03,11,8.70
2010,05,14,03,12,8.70
2010,05,14,03,13,8.80
2010,05,14,03,14,8.80
2010,05,14,03,15,8.80
2010,05,14,03,16,8.90
2010,05,14,03,17,8.90
2010,05,14,03,18,9.00
2010,05,14,03,19,9.10
2010,05,14,03,20,9.20
2010,05,14,03,21,9.30
2010,05,14,03,22,9.40
2010,05,14,03,23,9.50
2010,05,14,03,24,9.60
2010,05,14,03,25,9.70
2010,05,14,03,26,9.80
2010,05,14,03,27,9.90
2010,05,14,03,28,10.00
2010,05,14,03,29,10.10
2010,05,14,03,30,10.10
2010,05,14,03,31,10.20
2010,05,14,03,32,10.30
2010,05,14,03,33,10.30
2010,05,14,03,34,10.30
2010,05,14,03,35,10.40
2010,05,14,03,36,10.40
2010,05,14,03,37,10.40
2010,05,14,03,38,10.40
2010,05,14,03,39,10.50
2010,05,14,03,40,10.50
2010,05,14,03,41,10.50
2010,05,14,03,42,10.50
2010,05,14,03,43,10.60
2010,05,14,03,44,10.60
2010,05,14,03,45,10.60
2010,05,14,03,46,10.60
2010,05,14,03,47,10.60
2010,05,14,03,48,10.60
2010,05,14,03,49,10.70
2010,05,14,03,50,10.70
2010,05,14,03,51,10.60
2010,05,14,03,52,10.60
2010,05,14,03,53,10.60
2010,05,14,03,54,10.60
2010,05,14,03,55,10.60
2010,05,14,03,56,10.60
2010,05,14,03,57,10.60
2010,05,14,03,58,10.60
2010,05,14,03,59,10.60
2010,05,14,04,00,10.60
2010,05,14,04,01,10.60
2010,05,14,04,02,10.70
2010,05,14,04,03,10.60
2010,05,14,04,04,10.70
2010,05,14,04,05,10.60
2010,05,14,04,06,10.60
2010,05,14,04,07,10.60
2010,05,14,04,08,10.60
2010,05,14,04,09,10.60
2010,05,14,04,10,10.60
2010,05,14,04,11,10.60
2010,05,14,04,12,10.60
2010,05,14,04,13,10.60
2010,05,14,04,14,10.60
2010,05,14,04,15,10.60
2010,05,14,04,16,10.50
2010,05,14,04,17,10.50
2010,05,14,04,18,10.50
2010,05,14,04,19,10.50
2010,05,14,04,20,10.50
2010,05,14,04,21,10.50
2010,05,14,04,22,10.50
2010,05,14,04,23,10.50
2010,05,14,04,24,10.50
2010,05,14,04,25,10.60
2010,05,14,04,26,10.60
2010,05,14,04,27,10.60
2010,05,14,04,28,10.60
2010,05,14,04,29,10.60
2010,05,14,04,30,10.60
2010,05,14,04,31,10.70
2010,05,14,04,32,10.70
2010,05,14,04,33,10.70
2010,05,14,04,34,10.70
2010,05,14,04,35,10.70
2010,05,14,04,36,10.70
2010,05,14,04,37,10.70
2010,05,14,04,38,10.70
2010,05,14,04,39,10.70
2010,05,14,04,40,10.70
2010,05,14,04,41,10.70
2010,05,14,04,42,10.70
2010,05,14,04,43,10.70
2010,05,14,04,44,10.70
2010,05,14,04,45,10.70
2010,05,14,04,46,10.70
2010,05,14,04,47,10.70
2010,05,14,04,48,10.70
2010,05,14,04,49,10.70
2010,05,14,04,50,10.60
2010,05,14,04,51,10.60
2010,05,14,04,52,10.60
2010,05,14,04,53,10.50
2010,05,14,04,54,10.50
2010,05,14,04,55,10.50
2010,05,14,04,56,10.40
2010,05,14,04,57,10.40
2010,05,14,04,58,10.30
2010,05,14,04,59,10.30
2010,05,14,05,00,10.30
2010,05,14,05,01,10.30
2010,05,14,05,02,10.20
2010,05,14,05,03,10.20
2010,05,14,05,04,10.20
2010,05,14,05,05,10.20
2010,05,14,05,06,10.20
2010,05,14,05,07,10.20
2010,05,14,05,08,10.20
2010,05,14,05,09,10.20
2010,05,14,05,10,10.20
2010,05,14,05,11,10.20
2010,05,14,05,12,10.20
2010,05,14,05,13,10.20
2010,05,14,05,14,10.20
2010,05,14,05,15,10.20
2010,05,14,05,16,10.30
2010,05,14,05,17,10.30
2010,05,14,05,18,10.30
2010,05,14,05,19,10.30
2010,05,14,05,20,10.30
2010,05,14,05,21,10.30
2010,05,14,05,22,10.30
2010,05,14,05,23,10.30
2010,05,14,05,24,10.30
2010,05,14,05,25,10.20
2010,05,14,05,26,10.20
2010,05,14,05,27,10.10
2010,05,14,05,28,10.00
2010,05,14,05,29,10.00
2010,05,14,05,30,9.90
2010,05,14,05,31,9.80
2010,05,14,05,32,9.70
2010,05,14,05,33,9.60
2010,05,14,05,34,9.50
2010,05,14,05,35,9.50
2010,05,14,05,36,9.40
2010,05,14,05,37,9.40
2010,05,14,05,38,9.30
2010,05,14,05,39,9.30
2010,05,14,05,40,9.30
2010,05,14,05,41,9.30
2010,05,14,05,42,9.30
2010,05,14,05,43,9.30
2010,05,14,05,44,9.20
2010,05,14,05,45,9.10
2010,05,14,05,46,9.10
2010,05,14,05,47,9.00
2010,05,14,05,48,9.00
2010,05,14,05,49,9.00
2010,05,14,05,50,8.90
2010,05,14,05,51,8.90
2010,05,14,05,52,9.00
2010,05,14,05,53,9.00
2010,05,14,05,54,9.10
2010,05,14,05,55,9.10
2010,05,14,05,56,9.10
2010,05,14,05,57,9.20
2010,05,14,05,58,9.10
2010,05,14,05,59,9.10
2010,05,14,06,00,9.10
2010,05,14,06,01,9.10
2010,05,14,06,02,9.10
2010,05,14,06,03,9.10
2010,05,14,06,04,9.10
2010,05,14,06,05,9.10
2010,05,14,06,06,9.10
2010,05,14,06,07,9.10
2010,05,14,06,08,9.10
2010,05,14,06,09,9.20
2010,05,14,06,10,9.10
2010,05,14,06,11,9.00
2010,05,14,06,12,9.00
2010,05,14,06,13,8.90
2010,05,14,06,14,8.90
2010,05,14,06,15,8.80
2010,05,14,06,16,8.80
2010,05,14,06,17,8.90
2010,05,14,06,18,8.90
2010,05,14,06,19,9.00
2010,05,14,06,20,9.00
2010,05,14,06,21,9.10
2010,05,14,06,22,9.20
2010,05,14,06,23,9.30
2010,05,14,06,24,9.30
2010,05,14,06,25,9.40
2010,05,14,06,26,9.40
2010,05,14,06,27,9.40
2010,05,14,06,28,9.50
2010,05,14,06,29,9.50
2010,05,14,06,30,9.60
2010,05,14,06,31,9.60
2010,05,14,06,32,9.60
2010,05,14,06,33,9.70
2010,05,14,06,34,9.70
2010,05,14,06,35,9.70
2010,05,14,06,36,9.80
2010,05,14,06,37,9.80
2010,05,14,06,38,9.90
2010,05,14,06,39,9.90
2010,05,14,06,40,9.90
2010,05,14,06,41,10.00
2010,05,14,06,42,10.00
2010,05,14,06,43,10.10
2010,05,14,06,44,10.10
2010,05,14,06,45,10.10
2010,05,14,06,46,10.20
2010,05,14,06,47,10.20
2010,05,14,06,48,10.20
2010,05,14,06,49,10.20
2010,05,14,06,50,10.30
2010,05,14,06,51,10.30
2010,05,14,06,52,10.30
2010,05,14,06,53,10.30
2010,05,14,06,54,10.30
2010,05,14,06,55,10.30
2010,05,14,06,56,10.30
2010,05,14,06,57,10.40
2010,05,14,06,58,10.40
2010,05,14,06,59,10.40
2010,05,14,07,00,10.40
2010,05,14,07,01,10.40
2010,05,14,07,02,10.40
2010,05,14,07,03,10.50
2010,05,14,07,04,10.50
2010,05,14,07,05,10.50
2010,05,14,07,06,10.50
2010,05,14,07,07,10.50
2010,05,14,07,08,10.50
2010,05,14,07,09,10.60
2010,05,14,07,10,10.60
2010,05,14,07,11,10.60
2010,05,14,07,12,10.70
2010,05,14,07,13,10.70
2010,05,14,07,14,10.70
2010,05,14,07,15,10.70
2010,05,14,07,16,10.70
2010,05,14,07,17,10.80
2010,05,14,07,18,10.80
2010,05,14,07,19,10.80
2010,05,14,07,20,10.90
2010,05,14,07,21,10.90
2010,05,14,07,22,10.90
2010,05,14,07,23,11.00
2010,05,14,07,24,11.00
2010,05,14,07,25,11.10
2010,05,14,07,26,11.10
2010,05,14,07,27,11.10
2010,05,14,07,28,11.20
2010,05,14,07,29,11.20
2010,05,14,07,30,11.30
2010,05,14,07,31,11.30
2010,05,14,07,32,11.30
2010,05,14,07,33,11.40
2010,05,14,07,34,11.40
2010,05,14,07,35,11.50
2010,05,14,07,36,11.50
2010,05,14,07,37,11.60
2010,05,14,07,38,11.60
2010,05,14,07,39,11.60
2010,05,14,07,40,11.70
2010,05,14,07,41,11.70
2010,05,14,07,42,11.80
2010,05,14,07,43,11.80
2010,05,14,07,44,11.80
2010,05,14,07,45,11.90
2010,05,14,07,46,11.90
2010,05,14,07,47,11.90
2010,05,14,07,48,11.90
2010,05,14,07,49,12.00
2010,05,14,07,50,12.00
2010,05,14,07,51,12.00
2010,05,14,07,52,12.10
2010,05,14,07,53,12.10
2010,05,14,07,54,12.10
2010,05,14,07,55,12.20
2010,05,14,07,56,12.20
2010,05,14,07,57,12.20
2010,05,14,07,58,12.20
2010,05,14,07,59,12.20
2010,05,14,08,00,12.30
2010,05,14,08,01,12.30
2010,05,14,08,02,12.40
2010,05,14,08,03,12.40
2010,05,14,08,04,12.50
2010,05,14,08,05,12.60
2010,05,14,08,06,12.60
2010,05,14,08,07,12.60
2010,05,14,08,08,12.70
2010,05,14,08,09,12.70
2010,05,14,08,10,12.70
2010,05,14,08,11,12.80
2010,05,14,08,12,12.80
2010,05,14,08,13,12.80
2010,05,14,08,14,12.90
2010,05,14,08,15,12.90
2010,05,14,08,16,12.80
2010,05,14,08,17,12.80
2010,05,14,08,18,12.80
2010,05,14,08,19,12.80
2010,05,14,08,20,12.80
2010,05,14,08,21,12.80
2010,05,14,08,22,12.80
2010,05,14,08,23,12.80
2010,05,14,08,24,12.80
2010,05,14,08,25,12.80
2010,05,14,08,26,12.90
2010,05,14,08,27,12.90
2010,05,14,08,28,12.80
2010,05,14,08,29,12.80
2010,05,14,08,30,12.80
2010,05,14,08,31,12.80
2010,05,14,08,32,12.80
2010,05,14,08,33,12.80
2010,05,14,08,34,12.80
2010,05,14,08,35,12.80
2010,05,14,08,36,12.80
2010,05,14,08,37,12.80
2010,05,14,08,38,12.80
2010,05,14,08,39,12.80
2010,05,14,08,40,12.80
2010,05,14,08,41,12.80
2010,05,14,08,42,12.80
2010,05,14,08,43,12.80
2010,05,14,08,44,12.90
2010,05,14,08,45,12.90
2010,05,14,08,46,12.90
2010,05,14,08,47,12.90
2010,05,14,08,48,12.90
2010,05,14,08,49,12.90
2010,05,14,08,50,12.80
2010,05,14,08,51,12.80
2010,05,14,08,52,12.90
2010,05,14,08,53,12.80
2010,05,14,08,54,12.80
2010,05,14,08,55,12.80
2010,05,14,08,56,12.80
2010,05,14,08,57,12.80
2010,05,14,08,58,12.80
2010,05,14,08,59,12.80
2010,05,14,09,00,12.80
2010,05,14,09,01,12.80
2010,05,14,09,02,12.80
2010,05,14,09,03,12.90
2010,05,14,09,04,12.90
2010,05,14,09,05,12.90
2010,05,14,09,06,12.90
2010,05,14,09,07,12.90
2010,05,14,09,08,12.90
2010,05,14,09,09,12.90
2010,05,14,09,10,13.00
2010,05,14,09,11,13.10
2010,05,14,09,12,13.10
2010,05,14,09,13,13.20
2010,05,14,09,14,13.30
2010,05,14,09,15,13.30
2010,05,14,09,16,13.30
2010,05,14,09,17,13.30
2010,05,14,09,18,13.30
2010,05,14,09,19,13.20
2010,05,14,09,20,13.20
2010,05,14,09,21,13.10
2010,05,14,09,22,13.10
2010,05,14,09,23,13.10
2010,05,14,09,24,13.10
2010,05,14,09,25,13.10
2010,05,14,09,26,13.10
2010,05,14,09,27,13.10
2010,05,14,09,28,13.10
2010,05,14,09,29,13.10
2010,05,14,09,30,13.20
2010,05,14,09,31,13.20
2010,05,14,09,32,13.30
2010,05,14,09,33,13.30
2010,05,14,09,34,13.30
2010,05,14,09,35,13.20
2010,05,14,09,36,13.20
2010,05,14,09,37,13.10
2010,05,14,09,38,13.10
2010,05,14,09,39,12.90
2010,05,14,09,40,12.80
2010,05,14,09,41,12.70
2010,05,14,09,42,12.60
2010,05,14,09,43,12.60
2010,05,14,09,44,12.60
2010,05,14,09,45,12.70
2010,05,14,09,46,12.70
2010,05,14,09,47,12.80
2010,05,14,09,48,12.90
2010,05,14,09,49,13.00
2010,05,14,09,50,13.10
2010,05,14,09,51,13.10
2010,05,14,09,52,13.10
2010,05,14,09,53,13.00
2010,05,14,09,54,12.90
2010,05,14,09,55,12.90
2010,05,14,09,56,12.80
2010,05,14,09,57,12.70
2010,05,14,09,58,12.60
2010,05,14,09,59,12.60
2010,05,14,10,00,12.60
2010,05,14,10,01,12.60
2010,05,14,10,02,12.70
2010,05,14,10,03,12.70
2010,05,14,10,04,12.80
2010,05,14,10,05,12.80
2010,05,14,10,06,12.80
2010,05,14,10,07,12.70
2010,05,14,10,08,12.60
2010,05,14,10,09,12.60
2010,05,14,10,10,12.60
2010,05,14,10,11,12.60
2010,05,14,10,12,12.70
2010,05,14,10,13,12.80
2010,05,14,10,14,12.90
2010,05,14,10,15,12.90
2010,05,14,10,16,12.90
2010,05,14,10,17,13.00
2010,05,14,10,18,13.10
2010,05,14,10,19,13.10
2010,05,14,10,20,13.20
2010,05,14,10,21,13.30
2010,05,14,10,22,13.40
2010,05,14,10,23,13.50
2010,05,14,10,24,13.60
2010,05,14,10,25,13.60
2010,05,14,10,26,13.50
2010,05,14,10,27,13.40
2010,05,14,10,28,13.20
2010,05,14,10,29,13.10
2010,05,14,10,30,13.00
2010,05,14,10,31,12.90
2010,05,14,10,32,12.90
2010,05,14,10,33,12.80
2010,05,14,10,34,12.80
2010,05,14,10,35,12.80
2010,05,14,10,36,12.80
2010,05,14,10,37,12.90
2010,05,14,10,38,12.90
2010,05,14,10,39,13.00
2010,05,14,10,40,13.00
2010,05,14,10,41,13.10
2010,05,14,10,42,13.10
2010,05,14,10,43,13.10
2010,05,14,10,44,13.10
2010,05,14,10,45,13.10
2010,05,14,10,46,13.20
2010,05,14,10,47,13.20
2010,05,14,10,48,13.20
2010,05,14,10,49,13.10
2010,05,14,10,50,13.10
2010,05,14,10,51,13.10
2010,05,14,10,52,13.20
2010,05,14,10,53,13.20
2010,05,14,10,54,13.20
2010,05,14,10,55,13.20
2010,05,14,10,56,13.20
2010,05,14,10,57,13.20
2010,05,14,10,58,13.20
2010,05,14,10,59,13.20
2010,05,14,11,00,13.20
2010,05,14,11,01,13.20
2010,05,14,11,02,13.20
2010,05,14,11,03,13.30
2010,05,14,11,04,13.40
2010,05,14,11,05,13.40
2010,05,14,11,06,13.40
2010,05,14,11,07,13.40
2010,05,14,11,08,13.30
2010,05,14,11,09,13.20
2010,05,14,11,10,13.10
2010,05,14,11,11,13.00
2010,05,14,11,12,13.00
2010,05,14,11,13,13.00
2010,05,14,11,14,13.10
2010,05,14,11,15,13.20
2010,05,14,11,16,13.20
2010,05,14,11,17,13.20
2010,05,14,11,18,13.30
2010,05,14,11,19,13.30
2010,05,14,11,20,13.40
2010,05,14,11,21,13.50
2010,05,14,11,22,13.60
2010,05,14,11,23,13.60
2010,05,14,11,24,13.70
2010,05,14,11,25,13.70
2010,05,14,11,26,13.70
2010,05,14,11,27,13.70
2010,05,14,11,28,13.70
2010,05,14,11,29,13.80
2010,05,14,11,30,13.90
2010,05,14,11,31,13.90
2010,05,14,11,32,13.90
2010,05,14,11,33,13.90
2010,05,14,11,34,13.90
2010,05,14,11,35,14.00
2010,05,14,11,36,14.10
2010,05,14,11,37,14.00
2010,05,14,11,38,14.00
2010,05,14,11,39,13.90
2010,05,14,11,40,13.80
2010,05,14,11,41,13.70
2010,05,14,11,42,13.70
2010,05,14,11,43,13.70
2010,05,14,11,44,13.70
2010,05,14,11,45,13.60
2010,05,14,11,46,13.60
2010,05,14,11,47,13.60
2010,05,14,11,48,13.60
2010,05,14,11,49,13.60
2010,05,14,11,50,13.60
2010,05,14,11,51,13.60
2010,05,14,11,52,13.70
2010,05,14,11,53,13.70
2010,05,14,11,54,13.80
2010,05,14,11,55,13.90
2010,05,14,11,56,14.00
2010,05,14,11,57,14.10
2010,05,14,11,58,14.00
2010,05,14,11,59,14.10
2010,05,14,12,00,14.10
2010,05,14,12,01,14.10
2010,05,14,12,02,14.00
2010,05,14,12,03,14.00
2010,05,14,12,04,13.90
2010,05,14,12,05,13.80
2010,05,14,12,06,13.90
2010,05,14,12,07,13.90
2010,05,14,12,08,13.90
2010,05,14,12,09,14.00
2010,05,14,12,10,14.00
2010,05,14,12,11,14.10
2010,05,14,12,12,14.20
2010,05,14,12,13,14.20
2010,05,14,12,14,14.20
2010,05,14,12,15,14.30
2010,05,14,12,16,14.30
2010,05,14,12,17,14.30
2010,05,14,12,18,14.20
2010,05,14,12,19,14.20
2010,05,14,12,20,14.10
2010,05,14,12,21,14.00
2010,05,14,12,22,13.90
2010,05,14,12,23,14.00
2010,05,14,12,24,14.00
2010,05,14,12,25,13.90
2010,05,14,12,26,13.90
2010,05,14,12,27,13.90
2010,05,14,12,28,13.90
2010,05,14,12,29,14.00
2010,05,14,12,30,14.00
2010,05,14,12,31,14.00
2010,05,14,12,32,14.10
2010,05,14,12,33,14.10
2010,05,14,12,34,14.10
2010,05,14,12,35,14.10
2010,05,14,12,36,14.10
2010,05,14,12,37,14.20
2010,05,14,12,38,14.20
2010,05,14,12,39,14.20
2010,05,14,12,40,14.10
2010,05,14,12,41,14.10
2010,05,14,12,42,14.00
2010,05,14,12,43,13.90
2010,05,14,12,44,13.90
2010,05,14,12,45,13.90
2010,05,14,12,46,13.90
2010,05,14,12,47,13.90
2010,05,14,12,48,14.00
2010,05,14,12,49,14.00
2010,05,14,12,50,14.00
2010,05,14,12,51,14.10
2010,05,14,12,52,14.10
2010,05,14,12,53,14.10
2010,05,14,12,54,14.10
2010,05,14,12,55,14.20
2010,05,14,12,56,14.20
2010,05,14,12,57,14.20
2010,05,14,12,58,14.30
2010,05,14,12,59,14.40
2010,05,14,13,00,14.40
2010,05,14,13,01,14.50
2010,05,14,13,02,14.50
2010,05,14,13,03,14.50
2010,05,14,13,04,14.50
2010,05,14,13,05,14.40
2010,05,14,13,06,14.30
2010,05,14,13,07,14.20
2010,05,14,13,08,14.20
2010,05,14,13,09,14.20
2010,05,14,13,10,14.30
2010,05,14,13,11,14.40
2010,05,14,13,12,14.50
2010,05,14,13,13,14.60
2010,05,14,13,14,14.60
2010,05,14,13,15,14.70
2010,05,14,13,16,14.70
2010,05,14,13,17,14.80
2010,05,14,13,18,14.90
2010,05,14,13,19,15.00
2010,05,14,13,20,15.00
2010,05,14,13,21,15.00
2010,05,14,13,22,14.80
2010,05,14,13,23,14.70
2010,05,14,13,24,14.70
2010,05,14,13,25,14.60
2010,05,14,13,26,14.70
2010,05,14,13,27,14.70
2010,05,14,13,28,14.80
2010,05,14,13,29,14.90
2010,05,14,13,30,14.90
2010,05,14,13,31,14.90
2010,05,14,13,32,14.90
2010,05,14,13,33,14.90
2010,05,14,13,34,14.90
2010,05,14,13,35,15.00
2010,05,14,13,36,15.00
2010,05,14,13,37,15.00
2010,05,14,13,38,14.90
2010,05,14,13,39,14.80
2010,05,14,13,40,14.80
2010,05,14,13,41,14.70
2010,05,14,13,42,14.80
2010,05,14,13,43,14.90
2010,05,14,13,44,15.00
2010,05,14,13,45,15.00
2010,05,14,13,46,15.10
2010,05,14,13,47,15.10
2010,05,14,13,48,15.10
2010,05,14,13,49,15.10
2010,05,14,13,50,15.10
2010,05,14,13,51,15.20
2010,05,14,13,52,15.10
2010,05,14,13,53,15.00
2010,05,14,13,54,15.00
2010,05,14,13,55,14.80
2010,05,14,13,56,14.70
2010,05,14,13,57,14.70
2010,05,14,13,58,14.60
2010,05,14,13,59,14.60
2010,05,14,14,00,14.60
2010,05,14,14,01,14.60
2010,05,14,14,02,14.60
2010,05,14,14,03,14.50
2010,05,14,14,04,14.40
2010,05,14,14,05,14.30
2010,05,14,14,06,14.30
2010,05,14,14,07,14.30
2010,05,14,14,08,14.30
2010,05,14,14,09,14.40
2010,05,14,14,10,14.60
2010,05,14,14,11,14.60
2010,05,14,14,12,14.70
2010,05,14,14,13,14.70
2010,05,14,14,14,14.80
2010,05,14,14,15,14.80
2010,05,14,14,16,14.90
2010,05,14,14,17,15.00
2010,05,14,14,18,15.00
2010,05,14,14,19,15.00
2010,05,14,14,20,15.00
2010,05,14,14,21,15.00
2010,05,14,14,22,15.10
2010,05,14,14,23,15.20
2010,05,14,14,24,15.20
2010,05,14,14,25,15.20
2010,05,14,14,26,15.10
2010,05,14,14,27,15.00
2010,05,14,14,28,15.00
2010,05,14,14,29,14.90
2010,05,14,14,30,14.80
2010,05,14,14,31,14.80
2010,05,14,14,32,14.80
2010,05,14,14,33,14.90
2010,05,14,14,34,15.00
2010,05,14,14,35,15.10
2010,05,14,14,36,15.20
2010,05,14,14,37,15.40
2010,05,14,14,38,15.50
2010,05,14,14,39,15.50
2010,05,14,14,40,15.40
2010,05,14,14,41,15.30
2010,05,14,14,42,15.30
2010,05,14,14,43,15.20
2010,05,14,14,44,15.20
2010,05,14,14,45,15.20
2010,05,14,14,46,15.30
2010,05,14,14,47,15.30
2010,05,14,14,48,15.30
2010,05,14,14,49,15.30
2010,05,14,14,50,15.30
2010,05,14,14,51,15.30
2010,05,14,14,52,15.30
2010,05,14,14,53,15.30
2010,05,14,14,54,15.40
2010,05,14,14,55,15.40
2010,05,14,14,56,15.40
2010,05,14,14,57,15.40
2010,05,14,14,58,15.40
2010,05,14,14,59,15.30
2010,05,14,15,00,15.30
2010,05,14,15,01,15.40
2010,05,14,15,02,15.40
2010,05,14,15,03,15.40
2010,05,14,15,04,15.40
2010,05,14,15,05,15.30
2010,05,14,15,06,15.30
2010,05,14,15,07,15.30
2010,05,14,15,08,15.40
2010,05,14,15,09,15.40
2010,05,14,15,10,15.50
2010,05,14,15,11,15.60
2010,05,14,15,12,15.60
2010,05,14,15,13,15.60
2010,05,14,15,14,15.50
2010,05,14,15,15,15.40
2010,05,14,15,16,15.40
2010,05,14,15,17,15.40
2010,05,14,15,18,15.30
2010,05,14,15,19,15.30
2010,05,14,15,20,15.30
2010,05,14,15,21,15.30
2010,05,14,15,22,15.30
2010,05,14,15,23,15.30
2010,05,14,15,24,15.40
2010,05,14,15,25,15.40
2010,05,14,15,26,15.40
2010,05,14,15,27,15.40
2010,05,14,15,28,15.40
2010,05,14,15,29,15.50
2010,05,14,15,30,15.50
2010,05,14,15,31,15.50
2010,05,14,15,32,15.40
2010,05,14,15,33,15.40
2010,05,14,15,34,15.40
2010,05,14,15,35,15.30
2010,05,14,15,36,15.30
2010,05,14,15,37,15.30
2010,05,14,15,38,15.30
2010,05,14,15,39,15.30
2010,05,14,15,40,15.40
2010,05,14,15,41,15.40
2010,05,14,15,42,15.40
2010,05,14,15,43,15.30
2010,05,14,15,44,15.20
2010,05,14,15,45,15.30
2010,05,14,15,46,15.30
2010,05,14,15,47,15.30
2010,05,14,15,48,15.40
2010,05,14,15,49,15.50
2010,05,14,15,50,15.50
2010,05,14,15,51,15.50
2010,05,14,15,52,15.50
2010,05,14,15,53,15.50
2010,05,14,15,54,15.40
2010,05,14,15,55,15.40
2010,05,14,15,56,15.40
2010,05,14,15,57,15.50
2010,05,14,15,58,15.60
2010,05,14,15,59,15.60
2010,05,14,16,00,15.60
2010,05,14,16,01,15.50
2010,05,14,16,02,15.40
2010,05,14,16,03,15.30
2010,05,14,16,04,15.30
2010,05,14,16,05,15.30
2010,05,14,16,06,15.30
2010,05,14,16,07,15.30
2010,05,14,16,08,15.30
2010,05,14,16,09,15.30
2010,05,14,16,10,15.30
2010,05,14,16,11,15.30
2010,05,14,16,12,15.30
2010,05,14,16,13,15.30
2010,05,14,16,14,15.30
2010,05,14,16,15,15.40
2010,05,14,16,16,15.40
2010,05,14,16,17,15.50
2010,05,14,16,18,15.50
2010,05,14,16,19,15.60
2010,05,14,16,20,15.70
2010,05,14,16,21,15.70
2010,05,14,16,22,15.80
2010,05,14,16,23,15.80
2010,05,14,16,24,15.70
2010,05,14,16,25,15.70
2010,05,14,16,26,15.70
2010,05,14,16,27,15.70
2010,05,14,16,28,15.70
2010,05,14,16,29,15.70
2010,05,14,16,30,15.70
2010,05,14,16,31,15.70
2010,05,14,16,32,15.70
2010,05,14,16,33,15.70
2010,05,14,16,34,15.70
2010,05,14,16,35,15.60
2010,05,14,16,36,15.60
2010,05,14,16,37,15.60
2010,05,14,16,38,15.60
2010,05,14,16,39,15.60
2010,05,14,16,40,15.60
2010,05,14,16,41,15.70
2010,05,14,16,42,15.70
2010,05,14,16,43,15.80
2010,05,14,16,44,15.80
2010,05,14,16,45,15.80
2010,05,14,16,46,15.80
2010,05,14,16,47,15.80
2010,05,14,16,48,15.80
2010,05,14,16,49,15.80
2010,05,14,16,50,15.80
2010,05,14,16,51,15.70
2010,05,14,16,52,15.70
2010,05,14,16,53,15.70
2010,05,14,16,54,15.70
2010,05,14,16,55,15.70
2010,05,14,16,56,15.80
2010,05,14,16,57,15.90
2010,05,14,16,58,15.90
2010,05,14,16,59,16.00
2010,05,14,17,00,16.00
2010,05,14,17,01,16.00
2010,05,14,17,02,16.00
2010,05,14,17,03,16.00
2010,05,14,17,04,16.00
2010,05,14,17,05,16.00
2010,05,14,17,06,16.00
2010,05,14,17,07,16.00
2010,05,14,17,08,16.10
2010,05,14,17,09,16.20
2010,05,14,17,10,16.20
2010,05,14,17,11,16.20
2010,05,14,17,12,16.20
2010,05,14,17,13,16.20
2010,05,14,17,14,16.20
2010,05,14,17,15,16.20
2010,05,14,17,16,16.20
2010,05,14,17,17,16.10
2010,05,14,17,18,16.10
2010,05,14,17,19,16.00
2010,05,14,17,20,15.90
2010,05,14,17,21,15.80
2010,05,14,17,22,15.70
2010,05,14,17,23,15.70
2010,05,14,17,24,15.70
2010,05,14,17,25,15.70
2010,05,14,17,26,15.70
2010,05,14,17,27,15.80
2010,05,14,17,28,15.90
2010,05,14,17,29,15.90
2010,05,14,17,30,15.90
2010,05,14,17,31,15.90